Location: Melbourne
(37.8666°S, 145.1333°E)
Time: 09:08:26
(UTC+10:00)

Amateur Radio Satellites - All Passes

Search period start: 24 July 2016 08:38
Search period end: 25 July 2016 08:38
Location: Melbourne, 37.8666°S, 145.1333°E

Satellite Date Start Highest point End Downlink Frequencies (MHz)
Time Altitude Azimuth
Cosmos 2491 24 Jul 08:40:45 08:48:15 32° 96° (E) 08:55:46 435.465 / 435.565
PCSat 24 Jul 08:43:21 08:48:19 36° 235° (SW) 08:53:21 145.827
M-CUBED/EXP-1 PRIME 24 Jul 08:48:16 08:52:32 49° 111° (ESE) 08:56:33 437.505
ZACube-1 24 Jul 08:48:17 08:52:33 82° 103° (ESE) 08:56:49 437.345
FUNcube-1 24 Jul 08:49:43 08:53:58 80° 104° (ESE) 08:58:12 145.935
CUBEBUG 2 24 Jul 08:51:57 08:56:04 37° 278° (W) 09:00:08 437.445
AIST 2 24 Jul 08:54:27 08:57:56 26° 68° (ENE) 09:01:27 435.215
CINEMA 3 24 Jul 08:56:46 08:58:23 12° 271° (W) 09:00:00 145.822/145.860
HUMSAT D 24 Jul 09:04:05 09:07:24 24° 110° (ESE) 09:10:47 437.325/437.525
PHONESAT 2.4 24 Jul 09:04:37 09:07:39 49° 177° (S) 09:10:40 2401.200-2431.200
HO-68 24 Jul 09:06:47 09:11:45 20° 272° (W) 09:16:47 435.675
BEESAT 2 24 Jul 09:08:58 09:10:31 12° 224° (SW) 09:12:03 435.950
SEEDS 24 Jul 09:13:42 09:14:31 10° 270° (W) 09:15:21 437.485
YUBILEINY 24 Jul 09:17:23 09:26:13 86° 276° (W) 09:34:58 435.215
AUBIESAT-1 24 Jul 09:17:52 09:22:13 89° 108° (ESE) 09:26:19 437.475
DELFI C3 24 Jul 09:24:08 09:28:07 84° 286° (WNW) 09:32:12 145.870
Oscar 11 24 Jul 09:38:46 09:42:19 25° 275° (W) 09:45:57 145.826/435.025
Cosmos 2504 24 Jul 09:44:40 09:52:15 49° 102° (ESE) 10:00:18 435.465 / 435.565
TIGRISAT 24 Jul 09:47:13 09:50:18 18° 86° (E) 09:53:23 435.000
AO-85 24 Jul 09:49:34 09:51:29 12° 138° (SE) 09:53:27 145.980
AISAT 24 Jul 09:55:35 09:56:29 11° 118° (ESE) 09:57:22 437.250
O/OREOS (USA 219) 24 Jul 09:56:54 10:00:51 27° 241° (WSW) 10:04:50 437.305
UNISAT 6 24 Jul 10:01:35 10:05:25 29° 83° (E) 10:09:14 437.425
DX 1 24 Jul 10:10:02 10:10:43 10° 118° (ESE) 10:11:24 434.975-435.025
ESTCUBE 1 24 Jul 10:10:16 10:14:00 25° 112° (ESE) 10:17:45 437.505/2401.250
PRISM 24 Jul 10:10:26 10:13:05 16° 246° (WSW) 10:15:43 437.425
ISS 24 Jul 10:13:50 10:17:08 86° 37° (NE) 10:20:30 145.825
50 SAT 24 Jul 10:20:38 10:22:52 16° 112° (ESE) 10:25:07 437.505
M-CUBED/EXP-1 PRIME 24 Jul 10:24:56 10:27:10 14° 279° (W) 10:29:21 437.505
UKube-1 24 Jul 10:29:50 10:32:02 14° 116° (ESE) 10:34:16 .
AIST 2 24 Jul 10:32:44 10:36:20 27° 231° (SW) 10:39:57 435.215
Cosmos 2491 24 Jul 10:36:04 10:44:36 52° 257° (WSW) 10:53:17 435.465 / 435.565
HUMSAT D 24 Jul 10:39:37 10:42:57 24° 275° (W) 10:46:19 437.325/437.525
ANTELSAT 24 Jul 10:39:48 10:44:13 80° 77° (ENE) 10:48:38 437.575/2403.000
PHONESAT 2.4 24 Jul 10:41:11 10:44:16 73° 339° (NNW) 10:47:21 2401.200-2431.200
VELOX 1 24 Jul 10:43:57 10:48:00 33° 110° (ESE) 10:52:05 145.980
QB50P1 24 Jul 10:49:55 10:52:11 14° 88° (E) 10:54:28 145.935-145.965
CUBEBUG 1 24 Jul 10:55:35 10:59:55 51° 106° (ESE) 11:04:18 437.445
POPSAT HIP 1 24 Jul 10:55:37 10:58:18 16° 87° (E) 11:00:59 437.405
SPROUT 24 Jul 11:09:26 11:13:07 28° 110° (ESE) 11:16:50 437.525
QB50P2 24 Jul 11:14:37 11:18:22 29° 83° (E) 11:22:04 145.880/145.840
YUBILEINY 24 Jul 11:17:12 11:21:36 15° 257° (WSW) 11:25:59 435.215
POLYITAN 1 24 Jul 11:17:14 11:21:00 30° 83° (E) 11:24:44 437.675
TIGRISAT 24 Jul 11:23:05 11:27:03 35° 251° (WSW) 11:31:03 435.000
JAS-2 24 Jul 11:24:34 11:30:03 20° 91° (E) 11:35:14 435.910
AO-85 24 Jul 11:27:42 11:32:39 77° 121° (ESE) 11:37:55 145.980
AISAT 24 Jul 11:27:48 11:32:17 74° 282° (WNW) 11:36:51 437.250
UNISAT 6 24 Jul 11:38:32 11:41:58 23° 249° (WSW) 11:45:26 437.425
Cosmos 2504 24 Jul 11:38:35 11:45:18 32° 266° (W) 11:52:22 435.465 / 435.565
DX 1 24 Jul 11:41:50 11:46:15 73° 282° (WNW) 11:50:43 434.975-435.025
ESTCUBE 1 24 Jul 11:46:44 11:50:39 28° 276° (W) 11:54:39 437.505/2401.250
ISS 24 Jul 11:51:49 11:53:58 16° 203° (SSW) 11:56:09 145.825
50 SAT 24 Jul 11:53:00 11:56:13 29° 277° (W) 11:59:31 437.505
UKube-1 24 Jul 12:03:20 12:07:36 52° 280° (W) 12:11:55 .
NANOSAT C BR1 24 Jul 12:03:53 12:08:09 80° 256° (WSW) 12:12:22 145.865
DUCHIFAT 1 24 Jul 12:10:12 12:14:26 72° 256° (WSW) 12:18:37 145.980
PHONESAT 2.4 24 Jul 12:18:37 12:20:26 15° 326° (NW) 12:22:14 2401.200-2431.200
TISAT 1 24 Jul 12:19:13 12:23:12 39° 108° (ESE) 12:27:12 437.305
VELOX 1 24 Jul 12:21:07 12:24:29 21° 275° (W) 12:27:55 145.980
QB50P1 24 Jul 12:24:07 12:28:10 43° 253° (WSW) 12:32:10 145.935-145.965
POPSAT HIP 1 24 Jul 12:30:17 12:34:12 37° 252° (WSW) 12:38:07 437.405
CUBEBUG 1 24 Jul 12:34:18 12:36:28 13° 272° (W) 12:38:39 437.445
BUGSAT 1 24 Jul 12:41:35 12:45:41 72° 255° (WSW) 12:49:42 437.445
AIST 1 24 Jul 12:41:41 12:46:07 81° 97° (E) 12:50:26
ITUPSAT 1 24 Jul 12:44:54 12:47:44 16° 116° (ESE) 12:50:33 437.325
SPROUT 24 Jul 12:45:34 12:49:01 23° 275° (W) 12:52:30 437.525
QB50P2 24 Jul 12:50:44 12:53:58 21° 248° (WSW) 12:57:11 145.880/145.840
POLYITAN 1 24 Jul 12:53:25 12:56:36 21° 248° (WSW) 12:59:47 437.675
Cosmos 2499 24 Jul 13:00:35 13:01:30 10° 119° (ESE) 13:02:24 435.465 / 435.565
JAS-2 24 Jul 13:07:50 13:15:45 76° 253° (WSW) 13:23:03 435.910
AO-85 24 Jul 13:10:24 13:12:37 13° 288° (WNW) 13:14:52 145.980
Oscar 19 24 Jul 13:15:54 13:20:45 38° 82° (E) 13:25:32 437.125/150
GONETS M04 24 Jul 13:25:10 13:32:21 27° 111° (ESE) 13:39:25
SWISSCUBE 24 Jul 13:37:59 13:42:41 62° 106° (ESE) 13:47:28 437.505
TISAT 1 24 Jul 13:56:24 13:58:59 16° 273° (W) 14:01:35 437.305
BEESAT 24 Jul 13:59:46 14:04:32 87° 283° (WNW) 14:09:23 436.000
Gurwin Techsat 1B 24 Jul 14:04:25 14:09:38 49° 81° (E) 14:14:48 435.225
ITUPSAT 1 24 Jul 14:20:23 14:25:04 54° 280° (W) 14:29:49 437.325
ITAMSAT 1 24 Jul 14:41:36 14:46:27 35° 82° (E) 14:51:13 435.822/435.867
Cosmos 2499 24 Jul 14:48:07 14:56:07 64° 100° (E) 15:04:38 435.465 / 435.565
JAS-2 24 Jul 14:55:12 14:59:21 15° 235° (SW) 15:03:25 435.910
Oscar 19 24 Jul 14:55:40 14:59:50 24° 246° (WSW) 15:03:57 437.125/150
ISS 24 Jul 15:07:55 15:09:19 12° 162° (SSE) 15:10:44 145.825
KKS-1 24 Jul 15:08:41 15:13:06 56° 107° (ESE) 15:17:33 437.445
MOZHAYETS 4 24 Jul 15:14:59 15:19:31 67° 105° (ESE) 15:24:08
AO-7 24 Jul 15:16:48 15:24:21 36° 82° (E) 15:31:48 29.400- 29.500
SWISSCUBE 24 Jul 15:18:52 15:20:52 12° 271° (W) 15:22:52 437.505
GONETS M04 24 Jul 15:21:04 15:29:44 62° 272° (W) 15:38:15
DANDE 24 Jul 15:21:39 15:24:41 17° 101° (E) 15:28:15 436.750
CUSAT 1 24 Jul 15:32:45 15:38:13 64° 86° (E) 15:45:17 437.405
Gurwin Techsat 1B 24 Jul 15:45:19 15:49:10 20° 244° (WSW) 15:53:01 435.225
BEESAT 2 24 Jul 15:48:20 15:51:38 24° 129° (SE) 15:54:54 435.950
BEESAT 3 24 Jul 15:49:38 15:53:26 45° 124° (SE) 15:57:11 437.485
PCSat 24 Jul 15:50:09 15:53:57 19° 132° (SE) 15:57:44 145.827
STARS 24 Jul 15:57:51 16:02:18 84° 282° (WNW) 16:06:47 437.465
ITAMSAT 1 24 Jul 16:21:22 16:25:43 27° 247° (WSW) 16:30:02 435.822/435.867
CUBESAT XI-V 24 Jul 16:24:07 16:28:33 43° 108° (ESE) 16:33:04 437.345
HORYU 2 24 Jul 16:26:31 16:29:52 20° 85° (E) 16:33:12 437.375
JUGNU 24 Jul 16:30:34 16:33:11 13° 1° (N) 16:35:49 437.505
Cosmos 2499 24 Jul 16:42:27 16:48:38 25° 264° (W) 16:55:05 435.465 / 435.565
ISS 24 Jul 16:43:08 16:46:25 50° 143° (SE) 16:49:39 145.825
KKS-1 24 Jul 16:48:09 16:49:59 12° 271° (W) 16:51:50 437.445
MOZHAYETS 4 24 Jul 16:56:23 16:57:08 10° 270° (W) 16:57:52
DANDE 24 Jul 17:02:03 17:06:32 50° 254° (WSW) 17:12:36 436.750
BRITE-PL 24 Jul 17:03:01 17:05:40 14° 92° (E) 17:08:12 437.365/2234.400
AO-7 24 Jul 17:09:16 17:17:12 49° 244° (WSW) 17:25:07 29.400- 29.500
CUSAT 1 24 Jul 17:16:49 17:21:09 20° 243° (WSW) 17:26:12 437.405
AIST 2 24 Jul 17:18:18 17:20:11 13° 136° (SE) 17:22:02 435.215
BEESAT 2 24 Jul 17:26:03 17:29:25 26° 293° (WNW) 17:32:44 435.950
BEESAT 3 24 Jul 17:28:49 17:30:40 13° 289° (WNW) 17:32:31 437.485
PCSat 24 Jul 17:32:25 17:37:50 66° 294° (WNW) 17:43:11 145.827
CUTE-I 24 Jul 17:33:14 17:36:47 18° 88° (E) 17:40:17 437.470
NOAA 18 24 Jul 17:37:35 17:41:27 19° 86° (E) 17:45:18 137.9125
RS-15 24 Jul 17:56:58 18:07:22 38° 73° (ENE) 18:17:20 29.354- 29.394
STRAND 1 24 Jul 18:00:54 18:05:17 30° 112° (ESE) 18:09:44 437.568
HORYU 2 24 Jul 18:02:25 18:06:28 33° 251° (WSW) 18:10:29 437.375
CUBESAT XI-V 24 Jul 18:02:59 18:06:07 18° 272° (W) 18:09:17 437.345
NOAA 15 24 Jul 18:04:31 18:09:43 47° 80° (E) 18:14:49 137.62
JUGNU 24 Jul 18:19:54 18:21:19 11° 351° (N) 18:22:44 437.505
ISS 24 Jul 18:20:35 18:22:32 15° 309° (NW) 18:24:27 145.825
GOMX 1 24 Jul 18:23:03 18:27:30 40° 83° (E) 18:31:38 467.674
LilacSat-2 24 Jul 18:25:36 18:29:26 59° 80° (E) 18:33:14 437.200
O/OREOS (USA 219) 24 Jul 18:28:53 18:33:14 39° 116° (ESE) 18:37:30 437.305
DOVE 4 24 Jul 18:35:21 18:38:47 22° 86° (E) 18:42:06 437.250
BRITE-PL 24 Jul 18:39:32 18:44:38 57° 253° (WSW) 18:49:17 437.365/2234.400
SRMSAT 24 Jul 18:40:10 18:42:54 13° 2° (N) 18:45:38 437.500
Cubesat XI-IV 24 Jul 18:46:49 18:52:16 88° 78° (ENE) 18:57:40 437.490
HO-68 24 Jul 18:49:05 18:52:11 13° 91° (E) 18:55:16 435.675
Cosmos 2491 24 Jul 18:54:47 18:58:48 14° 119° (ESE) 19:02:47 435.465 / 435.565
AIST 2 24 Jul 18:54:59 18:59:08 70° 298° (WNW) 19:03:13 435.215
CUTE-I 24 Jul 19:11:51 19:17:07 54° 252° (WSW) 19:22:21 437.470
CINEMA 3 24 Jul 19:14:09 19:16:40 15° 87° (E) 19:19:08 145.822/145.860
NOAA 18 24 Jul 19:17:01 19:22:22 52° 251° (WSW) 19:27:41 137.9125
PRISM 24 Jul 19:22:06 19:25:26 23° 112° (ESE) 19:28:47 437.425
SEEDS 24 Jul 19:22:25 19:23:43 11° 90° (E) 19:25:00 437.485
STRAND 1 24 Jul 19:39:54 19:44:22 30° 276° (W) 19:48:54 437.568
COMPASS 1 24 Jul 19:40:32 19:42:24 13° 89° (E) 19:44:17 437.405
NOAA 15 24 Jul 19:45:09 19:49:06 21° 244° (WSW) 19:53:00 137.62
CANX-2 24 Jul 19:55:28 19:59:42 46° 81° (E) 20:03:52 2200.000
GOMX 1 24 Jul 20:02:03 20:05:12 18° 245° (WSW) 20:08:13 467.674
SO-50 24 Jul 20:07:08 20:11:14 41° 65° (ENE) 20:15:26 436.795
RS-15 24 Jul 20:07:43 20:19:14 60° 233° (SW) 20:30:17 29.354- 29.394
O/OREOS (USA 219) 24 Jul 20:09:12 20:12:17 18° 280° (W) 20:15:18 437.305
CUTE 1.7 + AOD 2 24 Jul 20:09:34 20:13:54 59° 79° (E) 20:18:09 437.475
AAUSAT CUBESAT 2 24 Jul 20:11:13 20:14:37 23° 85° (E) 20:17:59 437.432
DOVE 4 24 Jul 20:12:44 20:16:29 27° 249° (WSW) 20:20:05 437.250
YUBILEINY 24 Jul 20:22:12 20:28:24 22° 100° (E) 20:34:36 435.215
SRMSAT 24 Jul 20:29:25 20:31:12 11° 351° (N) 20:33:00 437.500
Cubesat XI-IV 24 Jul 20:29:39 20:31:32 12° 240° (WSW) 20:33:25 437.490
UWE-3 24 Jul 20:30:10 20:33:28 21° 85° (E) 20:36:47 435.000/436.395/437.385
HO-68 24 Jul 20:33:30 20:40:47 86° 74° (ENE) 20:47:58 435.675
ZACube-1 24 Jul 20:39:14 20:42:08 18° 86° (E) 20:45:02 437.345
FUNcube-1 24 Jul 20:40:24 20:43:13 17° 87° (E) 20:46:01 145.935
CUBEBUG 2 24 Jul 20:44:04 20:48:11 47° 81° (E) 20:52:19 437.445
TIGRISAT 24 Jul 20:45:15 20:47:31 14° 115° (ESE) 20:49:45 435.000
Cosmos 2491 24 Jul 20:48:22 20:57:18 75° 98° (E) 21:06:04 435.465 / 435.565
CINEMA 3 24 Jul 20:50:03 20:53:58 37° 252° (WSW) 20:57:50 145.822/145.860
SEEDS 24 Jul 20:55:28 20:59:44 56° 255° (WSW) 21:03:55 437.485
PRISM 24 Jul 20:57:02 21:00:35 27° 276° (W) 21:04:12 437.425
UNISAT 6 24 Jul 20:59:12 21:02:31 21° 112° (ESE) 21:05:49 437.425
DELFI C3 24 Jul 21:04:56 21:07:14 15° 88° (E) 21:09:31 145.870
COMPASS 1 24 Jul 21:14:05 21:18:14 49° 254° (WSW) 21:22:20 437.405
Oscar 11 24 Jul 21:26:44 21:31:09 67° 79° (E) 21:35:30 145.826/435.025
CANX-2 24 Jul 21:32:41 21:35:07 15° 246° (WSW) 21:37:32 2200.000
ANTELSAT 24 Jul 21:36:41 21:40:59 55° 106° (ESE) 21:45:15 437.575/2403.000
AAUSAT CUBESAT 2 24 Jul 21:46:25 21:50:02 27° 250° (WSW) 21:53:36 437.432
CUTE 1.7 + AOD 2 24 Jul 21:47:34 21:49:10 12° 244° (WSW) 21:50:47 437.475
POPSAT HIP 1 24 Jul 21:48:21 21:49:18 11° 117° (ESE) 21:50:15 437.405
SO-50 24 Jul 21:48:29 21:51:52 21° 228° (SW) 21:55:18 436.795
M-CUBED/EXP-1 PRIME 24 Jul 22:03:59 22:07:10 40° 76° (ENE) 22:10:17 437.505
QB50P2 24 Jul 22:06:05 22:09:05 19° 113° (ESE) 22:12:05 145.880/145.840
UWE-3 24 Jul 22:06:14 22:09:55 28° 251° (WSW) 22:13:36 435.000/436.395/437.385
POLYITAN 1 24 Jul 22:08:42 22:11:43 19° 113° (ESE) 22:14:45 437.675
ZACube-1 24 Jul 22:14:35 22:18:29 35° 252° (WSW) 22:22:26 437.345
YUBILEINY 24 Jul 22:15:30 22:24:15 72° 261° (W) 22:33:03 435.215
FUNcube-1 24 Jul 22:15:37 22:19:33 37° 252° (WSW) 22:23:32 145.935
TIGRISAT 24 Jul 22:19:30 22:23:46 49° 280° (W) 22:28:01 435.000
Cosmos 2504 24 Jul 22:21:53 22:28:29 40° 91° (E) 22:35:06 435.465 / 435.565
CUBEBUG 2 24 Jul 22:22:15 22:24:24 14° 246° (WSW) 22:26:33 437.445
HO-68 24 Jul 22:23:04 22:27:33 18° 237° (WSW) 22:32:02 435.675
HUMSAT D 24 Jul 22:23:38 22:27:50 59° 80° (E) 22:32:03 437.325/437.525
RS-15 24 Jul 22:26:39 22:34:36 21° 205° (SSW) 22:42:23 29.354- 29.394
AUBIESAT-1 24 Jul 22:32:58 22:36:21 87° 76° (ENE) 22:39:41 437.475
UNISAT 6 24 Jul 22:35:07 22:39:02 31° 277° (W) 22:42:56 437.425
DELFI C3 24 Jul 22:38:23 22:42:14 38° 253° (WSW) 22:46:01 145.870
Cosmos 2491 24 Jul 22:47:00 22:53:06 21° 260° (W) 22:59:09 435.465 / 435.565
CUBEBUG 1 24 Jul 22:48:48 22:49:48 11° 90° (E) 22:50:48 437.445
NANOSAT C BR1 24 Jul 22:53:50 22:58:01 58° 106° (ESE) 23:02:14 145.865
DUCHIFAT 1 24 Jul 22:59:49 23:04:02 64° 105° (ESE) 23:08:16 145.980
Oscar 11 24 Jul 23:05:30 23:06:40 11° 243° (WSW) 23:07:49 145.826/435.025
QB50P1 24 Jul 23:14:06 23:18:21 76° 283° (WNW) 23:22:41 145.935-145.965
ANTELSAT 24 Jul 23:16:26 23:17:59 12° 271° (W) 23:19:32 437.575/2403.000
JAS-2 24 Jul 23:17:02 23:23:17 43° 113° (ESE) 23:30:16 435.910
POPSAT HIP 1 24 Jul 23:20:15 23:24:30 65° 281° (W) 23:28:46 437.405
AISAT 24 Jul 23:20:27 23:24:04 24° 85° (E) 23:27:37 437.250
50 SAT 24 Jul 23:23:23 23:26:28 23° 84° (E) 23:29:31 437.505
BUGSAT 1 24 Jul 23:28:58 23:33:08 59° 105° (ESE) 23:37:19 437.445
DX 1 24 Jul 23:32:35 23:36:00 22° 85° (E) 23:39:23 434.975-435.025
ESTCUBE 1 24 Jul 23:40:13 23:44:50 69° 79° (ENE) 23:49:22 437.505/2401.250
QB50P2 24 Jul 23:40:42 23:44:36 34° 278° (W) 23:48:33 145.880/145.840
POLYITAN 1 24 Jul 23:43:24 23:47:16 33° 278° (W) 23:51:11 437.675
UKube-1 24 Jul 23:52:31 23:56:20 28° 83° (E) 00:00:04 .
HUMSAT D 25 Jul 00:01:31 00:02:56 11° 244° (WSW) 00:04:21 437.325/437.525
VELOX 1 25 Jul 00:11:39 00:16:10 86° 78° (ENE) 00:20:36 145.980
Cosmos 2504 25 Jul 00:15:31 00:21:52 32° 254° (WSW) 00:28:16 435.465 / 435.565
YUBILEINY 25 Jul 00:19:16 00:22:45 13° 240° (WSW) 00:26:15 435.215
CUBEBUG 1 25 Jul 00:22:05 00:26:28 61° 255° (WSW) 00:30:46 437.445
Oscar 19 25 Jul 00:30:43 00:35:43 47° 109° (ESE) 00:40:45 437.125/150
SPROUT 25 Jul 00:32:12 00:36:31 69° 79° (E) 00:40:47 437.525
NANOSAT C BR1 25 Jul 00:33:12 00:34:04 11° 271° (W) 00:34:57 145.865
RS-15 25 Jul 00:46:45 00:53:11 16° 167° (SSE) 00:59:32 29.354- 29.394
AISAT 25 Jul 00:56:38 01:00:29 29° 249° (WSW) 01:04:17 437.250
50 SAT 25 Jul 00:57:07 00:59:57 20° 249° (WSW) 01:02:46 437.505
JAS-2 25 Jul 01:02:28 01:08:22 34° 273° (W) 01:14:56 435.910
DX 1 25 Jul 01:08:19 01:12:11 30° 250° (WSW) 01:16:00 434.975-435.025
BUGSAT 1 25 Jul 01:08:27 01:08:50 10° 271° (W) 01:09:14 437.445
AIST 1 25 Jul 01:08:40 01:12:58 51° 87° (E) 01:17:20
ESTCUBE 1 25 Jul 01:19:25 01:21:01 12° 243° (WSW) 01:22:35 437.505/2401.250
Gurwin Techsat 1B 25 Jul 01:23:33 01:28:50 66° 106° (ESE) 01:34:11 435.225
UKube-1 25 Jul 01:28:44 01:32:12 23° 248° (WSW) 01:35:38 .
TISAT 1 25 Jul 01:40:05 01:44:21 88° 262° (W) 01:48:32 437.305
SWISSCUBE 25 Jul 01:40:59 01:44:20 18° 87° (E) 01:47:39 437.505
AO-85 25 Jul 01:41:40 01:45:07 32° 67° (ENE) 01:48:45 145.980
ITAMSAT 1 25 Jul 01:57:43 02:02:37 45° 109° (ESE) 02:07:38 435.822/435.867
DANDE 25 Jul 01:59:22 02:05:48 23° 114° (ESE) 02:12:02 436.750
BEESAT 25 Jul 02:02:09 02:06:17 27° 84° (E) 02:10:22 436.000
CUSAT 1 25 Jul 02:09:06 02:16:50 49° 106° (ESE) 02:23:27 437.405
SPROUT 25 Jul 02:11:19 02:11:51 10° 243° (WSW) 02:12:22 437.525
Oscar 19 25 Jul 02:11:30 02:15:14 20° 273° (W) 02:19:00 437.125/150
AO-7 25 Jul 02:13:48 02:21:27 43° 117° (ESE) 02:29:09 29.400- 29.500
ITUPSAT 1 25 Jul 02:22:37 02:27:17 44° 81° (E) 02:31:53 437.325
GONETS M04 25 Jul 02:24:02 02:31:35 33° 96° (E) 02:39:10
AIST 1 25 Jul 02:48:54 02:50:53 13° 250° (WSW) 02:52:54
RS-15 25 Jul 02:59:38 03:09:49 41° 135° (SE) 03:19:56 29.354- 29.394
KKS-1 25 Jul 03:03:30 03:05:21 12° 89° (E) 03:07:11 437.445
Gurwin Techsat 1B 25 Jul 03:06:28 03:09:13 14° 271° (W) 03:11:58 435.225
MOZHAYETS 4 25 Jul 03:12:45 03:16:02 19° 87° (E) 03:19:17
SWISSCUBE 25 Jul 03:17:42 03:22:18 43° 251° (WSW) 03:26:51 437.505
AO-85 25 Jul 03:22:39 03:25:37 20° 228° (SW) 03:28:44 145.980
Cosmos 2499 25 Jul 03:23:24 03:30:10 51° 89° (E) 03:37:05 435.465 / 435.565
HORYU 2 25 Jul 03:23:30 03:26:15 16° 115° (ESE) 03:29:01 437.375
ITAMSAT 1 25 Jul 03:38:33 03:42:17 20° 274° (W) 03:46:04 435.822/435.867
BEESAT 25 Jul 03:39:49 03:43:59 29° 249° (WSW) 03:48:07 436.000
DANDE 25 Jul 03:40:57 03:49:27 79° 276° (W) 03:57:24 436.750
STARS 25 Jul 03:49:55 03:53:11 20° 86° (E) 03:56:25 437.465
CUSAT 1 25 Jul 03:51:43 03:58:30 32° 266° (W) 04:04:27 437.405
ITUPSAT 1 25 Jul 04:01:21 04:04:45 19° 245° (WSW) 04:08:08 437.325
AO-7 25 Jul 04:06:27 04:14:09 41° 280° (W) 04:21:56 29.400- 29.500
BRITE-PL 25 Jul 04:10:52 04:14:32 18° 117° (ESE) 04:18:14 437.365/2234.400
GONETS M04 25 Jul 04:19:25 04:27:59 51° 257° (WSW) 04:36:37
CUBESAT XI-V 25 Jul 04:24:25 04:26:26 12° 90° (E) 04:28:27 437.345
Cubesat XI-IV 25 Jul 04:29:59 04:32:56 15° 118° (ESE) 04:35:55 437.490
KKS-1 25 Jul 04:37:50 04:42:14 55° 253° (WSW) 04:46:34 437.445
SO-50 25 Jul 04:39:52 04:43:49 26° 130° (SE) 04:47:49 436.795
PHONESAT 2.4 25 Jul 04:47:34 04:49:20 14° 34° (NE) 04:51:05 2401.200-2431.200
MOZHAYETS 4 25 Jul 04:48:56 04:53:19 40° 252° (WSW) 04:57:40
CUTE-I 25 Jul 04:53:07 04:57:23 25° 114° (ESE) 05:01:42 437.470
HORYU 2 25 Jul 04:58:09 05:02:25 44° 279° (W) 05:06:43 437.375
NOAA 18 25 Jul 05:01:45 05:06:33 32° 113° (ESE) 05:11:23 137.9125
LilacSat-2 25 Jul 05:06:19 05:09:20 23° 110° (ESE) 05:12:23 437.200
RS-15 25 Jul 05:11:57 05:22:31 58° 292° (WNW) 05:33:11 29.354- 29.394
Cosmos 2499 25 Jul 05:17:57 05:23:37 25° 250° (WSW) 05:29:25 435.465 / 435.565
NOAA 15 25 Jul 05:22:35 05:27:50 64° 107° (ESE) 05:33:11 137.62
STARS 25 Jul 05:25:37 05:29:35 33° 250° (WSW) 05:33:31 437.465
DANDE 25 Jul 05:26:33 05:30:55 15° 259° (W) 05:35:12 436.750
GOMX 1 25 Jul 05:27:57 05:33:06 41° 109° (ESE) 05:38:12 467.674
DOVE 4 25 Jul 05:38:15 05:42:22 24° 112° (ESE) 05:46:24 437.250
BEESAT 3 25 Jul 05:40:57 05:42:17 11° 72° (ENE) 05:43:39 437.485
BRITE-PL 25 Jul 05:46:45 05:52:21 66° 280° (W) 05:58:06 437.365/2234.400
CUBESAT XI-V 25 Jul 05:59:28 06:04:11 60° 254° (WSW) 06:08:50 437.345
Cubesat XI-IV 25 Jul 06:07:04 06:12:22 68° 282° (WNW) 06:17:45 437.490
CINEMA 3 25 Jul 06:14:27 06:16:56 14° 114° (ESE) 06:19:23 145.822/145.860
STRAND 1 25 Jul 06:15:31 06:16:52 11° 90° (E) 06:18:11 437.568
SO-50 25 Jul 06:20:01 06:24:21 36° 294° (WNW) 06:28:45 436.795
PHONESAT 2.4 25 Jul 06:22:25 06:25:29 72° 19° (NNE) 06:28:34 2401.200-2431.200
PCSat 25 Jul 06:30:29 06:34:25 21° 74° (ENE) 06:38:22 145.827
CUTE-I 25 Jul 06:32:13 06:37:11 39° 278° (W) 06:42:12 437.470
LilacSat-2 25 Jul 06:40:33 06:43:32 22° 275° (W) 06:46:34 437.200
NOAA 18 25 Jul 06:42:15 06:47:07 32° 277° (W) 06:52:02 137.9125
CANX-2 25 Jul 06:46:44 06:50:16 26° 110° (ESE) 06:53:52 2200.000
HO-68 25 Jul 06:59:45 07:06:41 54° 111° (ESE) 07:13:40 435.675
CUTE 1.7 + AOD 2 25 Jul 07:00:30 07:04:17 32° 109° (ESE) 07:08:08 437.475
AAUSAT CUBESAT 2 25 Jul 07:01:09 07:03:01 13° 115° (ESE) 07:04:55 437.432
NOAA 15 25 Jul 07:05:09 07:08:02 15° 271° (W) 07:10:56 137.62
GOMX 1 25 Jul 07:06:45 07:11:13 25° 274° (W) 07:15:40 467.674
DOVE 4 25 Jul 07:14:52 07:19:48 40° 278° (W) 07:24:37 437.250
BEESAT 2 25 Jul 07:15:20 07:19:19 79° 63° (ENE) 07:23:19 435.950
BEESAT 3 25 Jul 07:15:38 07:19:29 52° 237° (WSW) 07:23:22 437.485
UWE-3 25 Jul 07:26:28 07:28:53 15° 114° (ESE) 07:31:19 435.000/436.395/437.385
ZACube-1 25 Jul 07:35:03 07:36:29 12° 115° (ESE) 07:37:55 437.345
FUNcube-1 25 Jul 07:36:11 07:37:18 11° 116° (ESE) 07:38:25 145.935
CUBEBUG 2 25 Jul 07:40:28 07:44:22 32° 108° (ESE) 07:48:13 437.445
SEEDS 25 Jul 07:44:52 07:49:04 77° 105° (ESE) 07:53:20 437.485
CINEMA 3 25 Jul 07:48:55 07:53:38 56° 280° (W) 07:58:11 145.822/145.860
STRAND 1 25 Jul 07:51:20 07:56:34 78° 255° (WSW) 08:01:44 437.568
Cosmos 2491 25 Jul 07:55:04 07:59:55 16° 103° (ESE) 08:04:48 435.465 / 435.565
PHONESAT 2.4 25 Jul 07:59:05 08:02:06 49° 183° (S) 08:05:07 2401.200-2431.200
COMPASS 1 25 Jul 08:02:25 08:06:36 85° 103° (ESE) 08:10:52 437.405
PCSat 25 Jul 08:12:09 08:17:24 49° 238° (WSW) 08:22:41 145.827
Cosmos 2504 25 Jul 08:17:25 08:20:38 13° 116° (ESE) 08:23:56 435.465 / 435.565
Oscar 11 25 Jul 08:19:34 08:23:37 39° 108° (ESE) 08:27:42 145.826/435.025
CANX-2 25 Jul 08:22:39 08:26:03 23° 275° (W) 08:29:31 2200.000
